User: anonymous   Login
Location: Unspecified
(0.0000°N, 0.0000°E)
Time: 22:23:59
(UTC+00:00)
Language:

STARLINK-31819 - Orbit

View from above orbital plane
View from above orbital plane
View from above satellite
View from above satellite

Ground track
Ground track

The orbit is defined by the following mean orbital elements,

1 59738U          26145.34657080 +.00000000 +00000-0 +37250-4 0 00007
2 59738  43.0030 110.5912 0000874 273.0709  87.0043 15.27576758    05
Epoch (UTC): 25 May 2026 08:19:03
Eccentricity: 0.0000874
inclination: 43.0030°
perigee height: 482 km
apogee height: 484 km
right ascension of ascending node: 110.5912°
argument of perigee: 273.0709°
revolutions per day: 15.27576758
mean anomaly at epoch: 87.0043°

The dashed part of the orbit path shows where the satellite is in the earth's shadow,  

DLR